DW7287 Weather Reports


Display with metric or nautical units.
time (UTC)temp
F
wind
direction
speed
MPH
gust
MPH
rain 1hr
in
rain 24hr
in
rain mn
in
humidity
%
barometer
mb
20200806140222 63 343 0.0 2.0 0.22 0.23 0.00 96 1018.1
20200806135723 63 343 1.0 1.0 0.22 0.23 0.00 96 1018.0
20200806135223 63 343 0.0 2.0 0.20 0.21 0.00 95 1017.9
20200806134723 63 359 1.0 1.0 0.06 0.07 0.00 95 1018.1
20200806134223 63 359 0.0 1.0 0.00 0.01 0.00 95 1018.3
20200806133723 64 343 0.0 1.0 0.00 0.01 0.00 95 1018.3
20200806133223 64 359 0.0 0.0 0.00 0.01 0.00 95 1018.2
20200806132723 64 342 0.0 1.0 0.00 0.01 0.00 95 1018.1
20200806132223 64 343 0.0 2.0 0.01 0.01 0.00 95 1017.9
20200806131723 64 347 2.0 2.0 0.01 0.01 0.00 96 1017.9
20200806131223 64 349 0.0 1.0 0.01 0.01 0.00 96 1017.8
20200806130723 64 359 0.0 0.0 0.01 0.01 0.00 95 1017.9
20200806130223 64 359 0.0 0.0 0.01 0.01 0.00 95 1017.8
20200806125723 64 349 0.0 0.0 0.01 0.01 0.00 94 1017.7
20200806125223 64 359 0.0 0.0 0.01 0.01 0.00 94 1017.7
20200806124723 64 349 0.0 1.0 0.01 0.01 0.00 93 1017.8
20200806124223 64 359 0.0 2.0 0.01 0.01 0.00 93 1017.8
20200806123723 64 297 1.0 4.0 0.01 0.01 0.00 92 1017.8
20200806123223 64 297 2.0 3.0 0.01 0.01 0.00 92 1017.9
20200806122723 64 304 0.0 1.0 0.01 0.01 0.00 91 1017.5
20200806122223 64 304 0.0 0.0 0.00 0.00 0.00 91 1017.6
20200806121723 64 304 0.0 1.0 0.00 0.00 0.00 91 1017.6
20200806121223 64 304 0.0 0.0 0.00 0.00 0.00 91 1017.6
20200806120723 64 304 0.0 3.0 0.00 0.00 0.00 92 1017.5
20200806120223 64 304 0.0 5.0 0.00 0.00 0.00 93 1017.7
20200806115223 64 185 0.0 2.0 0.00 0.00 0.00 94 1017.4
20200806114723 63 184 0.0 0.0 0.00 0.00 0.00 93 1017.4
20200806114223 63 184 0.0 0.0 0.00 0.00 0.00 94 1017.4
20200806113723 63 184 0.0 0.0 0.00 0.00 0.00 94 1017.4
20200806113223 63 184 0.0 0.0 0.00 0.00 0.00 94 1017.2
20200806112723 63 184 0.0 0.0 0.00 0.00 0.00 94 1017.1
20200806112223 63 184 0.0 0.0 0.00 0.00 0.00 94 1017.2
20200806111223 62 184 0.0 0.0 0.00 0.00 0.00 95 1017.3
20200806110223 62 183 0.0 0.0 0.00 0.00 0.00 94 1017.3
20200806105723 62 183 0.0 0.0 0.00 0.00 0.00 95 1017.2
20200806105222 62 183 0.0 0.0 0.00 0.00 0.00 95 1017.2
20200806104723 62 183 0.0 0.0 0.00 0.00 0.00 95 1017.1
20200806104222 62 254 0.0 0.0 0.00 0.00 0.00 95 1017.0
20200806103723 62 254 0.0 1.0 0.00 0.00 0.00 95 1017.2
20200806103223 62 254 0.0 0.0 0.00 0.00 0.00 95 1017.3
20200806102723 62 254 0.0 0.0 0.00 0.00 0.00 95 1017.3
20200806102223 62 254 0.0 1.0 0.00 0.00 0.00 96 1017.3
20200806101723 62 254 0.0 1.0 0.00 0.00 0.00 96 1017.4
20200806101223 62 253 0.0 4.0 0.00 0.00 0.00 96 1017.2
20200806100723 62 318 1.0 2.0 0.00 0.00 0.00 96 1016.8
20200806100223 62 318 0.0 0.0 0.00 0.00 0.00 96 1016.8
20200806095723 62 318 0.0 0.0 0.00 0.00 0.00 96 1017.0
20200806095223 62 318 0.0 0.0 0.00 0.00 0.00 96 1017.1
20200806094723 62 318 0.0 0.0 0.00 0.00 0.00 96 1017.1
20200806094223 62 318 0.0 0.0 0.00 0.00 0.00 96 1017.1
20200806093722 62 318 0.0 0.0 0.00 0.00 0.00 96 1017.1
20200806093223 62 318 0.0 0.0 0.00 0.00 0.00 96 1017.1
20200806092723 62 318 0.0 0.0 0.00 0.00 0.00 95 1017.2
20200806092223 62 318 0.0 0.0 0.00 0.00 0.00 95 1017.3
20200806091723 62 318 0.0 0.0 0.00 0.00 0.00 95 1017.2
20200806091223 62 318 0.0 0.0 0.00 0.00 0.00 95 1017.3
20200806090723 62 318 0.0 0.0 0.00 0.00 0.00 95 1017.1
20200806090224 62 318 0.0 0.0 0.00 0.00 0.00 96 1017.1
20200806085723 62 318 0.0 1.0 0.00 0.00 0.00 96 1017.1
20200806085223 63 318 0.0 0.0 0.00 0.00 0.00 96 1017.1
20200806084723 62 318 0.0 0.0 0.00 0.00 0.00 96 1017.1
20200806084223 62 318 0.0 0.0 0.00 0.00 0.00 96 1017.2
20200806083723 62 318 0.0 1.0 0.00 0.00 0.00 96 1017.2
20200806083223 62 318 0.0 0.0 0.00 0.00 0.00 96 1017.2
20200806082723 62 359 0.0 0.0 0.00 0.00 0.00 96 1017.1
20200806082223 62 318 0.0 1.0 0.00 0.00 0.00 96 1017.2
20200806081723 62 318 0.0 0.0 0.00 0.00 0.00 97 1017.3
20200806081223 62 318 0.0 0.0 0.00 0.00 0.00 97 1017.3
20200806080722 62 359 0.0 0.0 0.00 0.00 0.00 97 1017.2
20200806080223 62 318 0.0 0.0 0.00 0.00 0.00 97 1017.2
20200806075722 62 318 0.0 2.0 0.00 0.00 0.00 97 1017.1
20200806075222 62 318 0.0 0.0 0.00 0.00 0.00 96 1017.0
20200806074724 62 318 0.0 0.0 0.00 0.00 0.00 96 1017.0
20200806074223 62 318 0.0 0.0 0.00 0.00 0.00 96 1017.0
20200806073733 62 318 0.0 0.0 0.00 0.00 0.00 96 1017.2
20200806073222 62 359 0.0 0.0 0.00 0.00 0.00 96 1017.3
20200806072723 62 318 0.0 0.0 0.00 0.00 0.00 96 1017.2
20200806072222 62 318 0.0 1.0 0.00 0.00 0.00 96 1017.3
20200806071222 62 318 0.0 0.0 0.00 0.00 0.00 96 1017.4
20200806070725 62 318 0.0 0.0 0.00 0.00 0.00 96 1017.4
20200806070223 62 318 0.0 0.0 0.00 0.00 0.00 96 1017.4
20200806065723 62 318 0.0 0.0 0.00 0.00 0.00 96 1017.4
20200806065222 62 318 0.0 0.0 0.00 0.00 0.00 96 1017.4
20200806064723 62 318 0.0 0.0 0.00 0.00 0.00 96 1017.4
20200806063723 63 318 0.0 0.0 0.00 0.00 0.00 97 1017.3
20200806063229 63 318 0.0 0.0 0.00 0.00 0.00 97 1017.3
20200806062723 63 318 0.0 1.0 0.00 0.00 0.00 97 1017.4
20200806061723 63 359 0.0 0.0 0.00 0.00 0.00 97 1017.5
20200806061223 63 318 0.0 0.0 0.00 0.00 0.00 97 1017.6
20200806060723 63 318 0.0 1.0 0.00 0.00 0.00 97 1017.7
20200806060223 63 318 0.0 2.0 0.00 0.00 0.00 97 1017.7
20200806055723 63 318 0.0 1.0 0.00 0.00 0.00 97 1017.7
20200806055223 63 318 0.0 0.0 0.00 0.00 0.00 97 1017.7
20200806054722 63 318 0.0 0.0 0.00 0.00 0.00 97 1017.7
20200806054222 63 318 0.0 0.0 0.00 0.00 0.00 97 1017.8
20200806053723 63 318 0.0 0.0 0.00 0.00 0.00 97 1017.8
20200806053222 63 318 0.0 0.0 0.00 0.00 0.00 97 1017.9
20200806052722 63 318 0.0 0.0 0.00 0.00 0.00 97 1018.0
20200806052222 63 318 0.0 1.0 0.00 0.00 0.00 96 1018.1
20200806051723 63 318 0.0 0.0 0.00 0.00 0.00 97 1018.1
20200806051223 63 318 0.0 0.0 0.00 0.00 0.00 97 1018.2
20200806050722 63 318 0.0 0.0 0.00 0.00 0.00 97 1018.2
20200806050223 63 318 0.0 0.0 0.00 0.00 0.00 97 1018.2
20200806045722 64 318 0.0 1.0 0.00 0.00 0.00 96 1018.2
20200806045222 64 318 0.0 0.0 0.00 0.00 0.00 96 1018.2
20200806044723 64 318 0.0 0.0 0.00 0.00 0.00 96 1018.4
20200806044222 64 318 0.0 0.0 0.00 0.00 0.00 96 1018.4
20200806043722 64 318 0.0 0.0 0.00 0.00 0.00 96 1018.4
20200806043222 64 318 0.0 1.0 0.00 0.00 0.00 96 1018.4
20200806042723 64 318 0.0 0.0 0.00 0.00 0.00 96 1018.4
20200806042223 64 318 0.0 0.0 0.00 0.00 0.00 96 1018.2
20200806041722 64 318 0.0 0.0 0.00 0.00 0.00 96 1018.2
20200806041223 64 318 0.0 0.0 0.00 0.00 0.00 96 1018.2
20200806040723 64 318 0.0 0.0 0.00 0.00 0.00 96 1018.1
20200806040231 64 359 0.0 1.0 0.00 0.00 0.00 96 1018.0
20200806035722 64 318 0.0 0.0 0.00 0.00 0.00 96 1018.0
20200806035223 64 318 0.0 0.0 0.00 0.00 0.00 96 1017.9
20200806034723 64 318 0.0 0.0 0.00 0.00 0.00 96 1017.9
20200806034223 65 318 0.0 0.0 0.00 0.00 0.00 96 1018.0
20200806033722 65 318 0.0 0.0 0.00 0.00 0.00 95 1017.9
20200806033223 65 318 0.0 0.0 0.00 0.00 0.00 95 1017.8
20200806032722 65 318 0.0 0.0 0.00 0.00 0.00 95 1017.9
20200806032223 65 318 0.0 0.0 0.00 0.00 0.00 95 1018.0
20200806031723 65 318 0.0 0.0 0.00 0.00 0.00 95 1018.0
20200806031222 65 318 0.0 0.0 0.00 0.00 0.00 95 1018.2
20200806030722 65 318 0.0 0.0 0.00 0.00 0.00 95 1018.1
20200806030222 65 318 0.0 0.0 0.00 0.00 0.00 94 1018.2
20200806025722 66 318 0.0 1.0 0.00 0.00 0.00 94 1018.2
20200806025223 66 318 0.0 0.0 0.00 0.00 0.00 94 1018.2
20200806024723 66 318 0.0 0.0 0.00 0.00 0.00 94 1018.1
20200806024223 66 318 0.0 0.0 0.00 0.00 0.00 94 1018.1
20200806023723 66 318 0.0 0.0 0.00 0.00 0.00 93 1018.1
20200806023223 66 318 0.0 0.0 0.00 0.00 0.00 93 1018.2
20200806022722 67 318 0.0 0.0 0.00 0.00 0.00 93 1018.3
20200806022223 67 318 0.0 0.0 0.00 0.00 0.00 92 1018.2
20200806021723 67 318 0.0 0.0 0.00 0.00 0.00 92 1018.2
20200806021223 67 318 0.0 0.0 0.00 0.00 0.00 92 1018.1
20200806020723 67 318 0.0 0.0 0.00 0.00 0.00 91 1018.1
20200806020223 68 318 0.0 0.0 0.00 0.00 0.00 91 1018.1
20200806015722 68 318 0.0 0.0 0.00 0.00 0.00 90 1018.1
20200806015223 68 318 0.0 0.0 0.00 0.00 0.00 90 1018.1
20200806014723 69 318 0.0 0.0 0.00 0.00 0.00 90 1018.0
20200806014222 69 318 0.0 0.0 0.00 0.00 0.00 90 1017.9
20200806013723 69 318 0.0 0.0 0.00 0.00 0.00 89 1018.0
20200806013223 69 318 0.0 0.0 0.00 0.00 0.00 89 1018.0
20200806012723 69 318 0.0 0.0 0.00 0.00 0.00 89 1017.9
20200806012224 70 318 0.0 0.0 0.00 0.00 0.00 88 1017.8
20200806011723 70 318 0.0 0.0 0.00 0.00 0.00 88 1017.8
20200806011222 70 318 0.0 0.0 0.00 0.00 0.00 87 1017.9
20200806010723 71 318 0.0 0.0 0.00 0.00 0.00 86 1017.8
20200806010223 71 318 0.0 0.0 0.00 0.00 0.00 85 1017.7
20200806005723 71 318 0.0 0.0 0.00 0.00 0.00 85 1017.7
20200806005223 71 318 0.0 0.0 0.00 0.00 0.00 84 1017.6
20200806004723 72 318 0.0 0.0 0.00 0.00 0.00 84 1017.6
20200806004222 72 318 0.0 0.0 0.00 0.00 0.00 83 1017.6
20200806003723 73 318 0.0 0.0 0.00 0.00 0.00 81 1017.7
20200806003223 73 318 0.0 0.0 0.00 0.00 0.00 80 1017.7
20200806002723 74 318 0.0 0.0 0.00 0.00 0.00 79 1017.6
20200806002223 74 318 0.0 0.0 0.00 0.00 0.00 78 1017.5
20200806001723 75 318 0.0 0.0 0.00 0.00 0.00 77 1017.5
20200806001223 75 318 0.0 0.0 0.00 0.00 0.00 75 1017.5
20200806000722 76 318 0.0 0.0 0.00 0.00 0.00 73 1017.5
20200806000223 77 318 0.0 0.0 0.00 0.00 0.00 72 1017.4
20200805235722 77 318 0.0 0.0 0.00 0.00 0.00 70 1017.2
20200805235222 77 318 0.0 0.0 0.00 0.00 0.00 70 1017.2
20200805234723 78 318 0.0 0.0 0.00 0.00 0.00 71 1017.3
20200805234223 78 318 0.0 0.0 0.00 0.00 0.00 70 1017.2
20200805233723 79 318 0.0 1.0 0.00 0.00 0.00 67 1017.3
20200805233222 79 318 0.0 0.0 0.00 0.00 0.00 67 1017.3
20200805232722 79 318 0.0 1.0 0.00 0.00 0.00 65 1017.2
20200805232222 80 318 0.0 2.0 0.00 0.00 0.00 64 1017.2
20200805231722 80 318 0.0 2.0 0.00 0.00 0.00 63 1017.2
20200805231223 81 318 1.0 3.0 0.00 0.00 0.00 61 1017.1
20200805230722 82 314 0.0 4.0 0.00 0.00 0.00 60 1017.0
20200805230223 82 316 0.0 4.0 0.00 0.00 0.00 60 1017.0
20200805225722 83 314 0.0 4.0 0.00 0.00 0.00 58 1017.0
20200805225222 83 312 2.0 5.0 0.00 0.00 0.00 57 1017.2
20200805224723 83 322 0.0 3.0 0.00 0.00 0.00 58 1017.1
20200805224223 83 322 3.0 5.0 0.00 0.00 0.00 56 1017.2
20200805223722 83 348 0.0 4.0 0.00 0.00 0.00 57 1017.2
20200805223222 83 330 0.0 3.0 0.00 0.00 0.00 59 1017.1
20200805222723 84 324 0.0 4.0 0.00 0.00 0.00 58 1017.1
20200805222223 83 43 0.0 2.0 0.00 0.00 0.00 59 1017.2
20200805221723 83 44 0.0 2.0 0.00 0.00 0.00 59 1017.2
20200805221222 82 45 0.0 1.0 0.00 0.00 0.00 59 1017.2
20200805220722 82 44 0.0 2.0 0.00 0.00 0.00 60 1017.1
20200805220223 82 46 0.0 3.0 0.00 0.00 0.00 60 1017.1
20200805215723 83 46 0.0 3.0 0.00 0.00 0.00 58 1017.1
20200805215222 83 342 0.0 1.0 0.00 0.00 0.00 58 1017.1
20200805214722 83 342 1.0 2.0 0.00 0.00 0.00 57 1017.1
20200805214222 83 342 0.0 4.0 0.00 0.00 0.00 58 1017.1
20200805213723 83 341 2.0 3.0 0.00 0.00 0.00 56 1017.1
20200805213222 84 296 0.0 3.0 0.00 0.00 0.00 56 1017.2
20200805212723 84 293 0.0 2.0 0.00 0.00 0.00 55 1017.2
20200805212223 85 289 0.0 5.0 0.00 0.00 0.00 54 1017.3
20200805211723 84 303 0.0 3.0 0.00 0.00 0.00 58 1017.4
20200805211223 83 297 0.0 3.0 0.00 0.00 0.00 58 1017.4
20200805210723 83 75 0.0 3.0 0.00 0.00 0.00 58 1017.4
20200805210223 83 299 0.0 3.0 0.00 0.00 0.00 56 1017.4
20200805205723 84 284 0.0 2.0 0.00 0.00 0.00 55 1017.4
20200805204722 84 276 0.0 5.0 0.00 0.00 0.00 55 1017.5
20200805204223 83 256 0.0 3.0 0.00 0.00 0.00 59 1017.4
20200805203723 84 268 2.0 6.0 0.00 0.00 0.00 58 1017.6
20200805203223 83 303 2.0 4.0 0.00 0.00 0.00 59 1017.7
20200805202723 82 322 3.0 5.0 0.00 0.00 0.00 59 1017.7
20200805202223 82 306 0.0 2.0 0.00 0.00 0.00 62 1017.8
20200805201723 82 302 0.0 3.0 0.00 0.00 0.00 62 1017.8
20200805201222 82 314 0.0 0.0 0.00 0.00 0.00 64 1017.8
20200805200722 84 314 0.0 1.0 0.00 0.00 0.00 56 1017.8
20200805195722 84 315 0.0 2.0 0.00 0.00 0.00 58 1017.9
20200805195223 84 315 0.0 3.0 0.00 0.00 0.00 55 1017.8
20200805194722 84 317 1.0 6.0 0.00 0.00 0.00 56 1018.0
20200805194222 83 298 0.0 4.0 0.00 0.00 0.00 56 1018.0
20200805193723 84 262 0.0 5.0 0.00 0.00 0.00 56 1018.0
20200805193223 85 339 1.0 5.0 0.00 0.00 0.00 55 1018.0
20200805192723 83 10 4.0 4.0 0.00 0.00 0.00 59 1018.2
20200805192222 82 315 0.0 3.0 0.00 0.00 0.00 59 1018.1
20200805191723 82 260 0.0 4.0 0.00 0.00 0.00 57 1018.1
20200805191223 83 248 2.0 4.0 0.00 0.00 0.00 59 1018.2
20200805190722 83 233 5.0 5.0 0.00 0.00 0.00 57 1018.2
20200805190223 84 354 0.0 3.0 0.00 0.00 0.00 55 1018.3
20200805185722 84 350 0.0 2.0 0.00 0.00 0.00 61 1018.3
20200805185223 80 59 2.0 3.0 0.00 0.00 0.00 68 1018.2
20200805184722 82 170 2.0 4.0 0.00 0.00 0.00 58 1018.3
20200805184222 85 307 1.0 2.0 0.00 0.00 0.00 56 1018.2
20200805183723 82 246 0.0 2.0 0.00 0.00 0.00 62 1018.2
20200805183222 83 246 2.0 3.0 0.00 0.00 0.00 56 1018.2
20200805182722 83 247 1.0 3.0 0.00 0.00 0.00 56 1018.4
20200805182222 82 49 0.0 5.0 0.00 0.00 0.00 61 1018.4
20200805181722 83 285 1.0 5.0 0.00 0.00 0.00 56 1018.4
20200805181223 83 310 0.0 8.0 0.00 0.00 0.00 58 1018.4
20200805180723 83 304 3.0 7.0 0.00 0.00 0.00 58 1018.4
20200805180223 82 321 3.0 7.0 0.00 0.00 0.00 61 1018.3
20200805175722 80 225 2.0 4.0 0.00 0.00 0.00 60 1018.3
20200805175223 84 303 2.0 7.0 0.00 0.00 0.00 55 1018.4
20200805174722 83 324 0.0 7.0 0.00 0.00 0.00 64 1018.4
20200805174222 81 289 5.0 7.0 0.00 0.00 0.00 62 1018.4
20200805173722 81 290 3.0 6.0 0.00 0.00 0.00 61 1018.5
20200805173222 80 44 0.0 3.0 0.00 0.00 0.00 65 1018.4
20200805172722 82 318 1.0 5.0 0.00 0.00 0.00 57 1018.4
20200805172222 81 324 3.0 6.0 0.00 0.00 0.00 60 1018.4
20200805171722 79 39 0.0 3.0 0.00 0.00 0.00 63 1018.4
20200805171223 79 354 2.0 3.0 0.00 0.00 0.00 65 1018.5
20200805170722 79 4 0.0 3.0 0.00 0.00 0.00 63 1018.5
20200805170222 80 359 2.0 5.0 0.00 0.00 0.00 61 1018.6
20200805165722 78 65 0.0 4.0 0.00 0.00 0.00 65 1018.5
20200805165223 80 319 0.0 3.0 0.00 0.00 0.00 61 1018.6
20200805164722 81 322 1.0 5.0 0.00 0.00 0.00 61 1018.6
20200805164222 80 311 3.0 4.0 0.00 0.00 0.00 61 1018.7
20200805163722 79 310 3.0 3.0 0.00 0.00 0.00 64 1018.7
20200805163223 78 354 0.0 1.0 0.00 0.00 0.00 69 1018.7
20200805162722 77 354 0.0 3.0 0.00 0.00 0.00 70 1018.6
20200805162222 76 342 0.0 4.0 0.00 0.00 0.00 69 1018.6
20200805161722 76 83 2.0 4.0 0.00 0.00 0.00 69 1018.7
20200805161222 79 25 2.0 3.0 0.00 0.00 0.00 65 1018.7
20200805160722 79 301 2.0 4.0 0.00 0.00 0.00 65 1018.7
20200805160222 80 285 3.0 3.0 0.00 0.00 0.00 64 1018.7
20200805155722 80 312 0.0 2.0 0.00 0.00 0.00 67 1018.7
20200805155222 80 316 0.0 5.0 0.00 0.00 0.00 61 1018.7
20200805154722 80 343 0.0 2.0 0.00 0.00 0.00 64 1018.6
20200805154222 77 46 0.0 2.0 0.00 0.00 0.00 69 1018.5
20200805153722 76 46 0.0 3.0 0.00 0.00 0.00 72 1018.5
20200805153222 76 43 0.0 5.0 0.00 0.00 0.00 69 1018.5
20200805152722 78 29 4.0 5.0 0.00 0.00 0.00 69 1018.5
20200805152223 79 30 2.0 2.0 0.00 0.00 0.00 69 1018.5
20200805151723 76 31 0.0 3.0 0.00 0.00 0.00 73 1018.4
20200805151222 74 45 2.0 3.0 0.00 0.00 0.00 73 1018.5
20200805150722 74 66 0.0 3.0 0.00 0.00 0.00 72 1018.4
20200805150222 75 65 0.0 4.0 0.00 0.00 0.00 74 1018.4
20200805145722 76 33 1.0 4.0 0.00 0.00 0.00 72 1018.5
20200805145222 75 37 1.0 4.0 0.00 0.00 0.00 75 1018.5
20200805144723 76 73 3.0 4.0 0.00 0.00 0.00 77 1018.5
20200805144222 75 22 0.0 2.0 0.00 0.00 0.00 75 1018.5
20200805143722 75 105 1.0 3.0 0.00 0.00 0.00 79 1018.4
20200805143222 74 330 0.0 4.0 0.00 0.00 0.00 78 1018.5
20200805142722 74 120 0.0 3.0 0.00 0.00 0.00 77 1018.5
20200805142222 74 73 0.0 4.0 0.00 0.00 0.00 77 1018.5
20200805141723 73 29 0.0 2.0 0.00 0.00 0.00 79 1018.5
20200805141222 73 29 0.0 3.0 0.00 0.00 0.00 78 1018.6
20200805140722 73 100 3.0 3.0 0.00 0.00 0.00 80 1018.6